Location: Mouss�
(47.9236°N, 1.2701°W)
Time: 03:01:21
(UTC+00:00)

Lacrosse 4 Rocket - Pass Details

Date: 03 March 2021
Orbit: 537 x 620 km, 68.0° (Epoch: 16 April)

Event Time Altitude Azimuth Distance (km) Brightness Sun altitude
Rises 19:10:23 0° 171° (S) 2,817 4.8 -13.8°
Reaches altitude 10° 19:13:04 10° 154° (SSE) 1,936 3.8 -14.2°
Enters shadow 19:14:33 16° 136° (SE) 1,583 3.2 -14.5°
